sat.trackr.live / text

‹ back to catalog

ICEYE-X43

NORAD 60539 · 2024-149BZ

PAYLOAD ACTIVE UNKNOWN

§ Identity

Operator
Country
BRAZ
Launch date
2024-08-16
Launch site
AFWTR
Launch vehicle
Mass (kg)
RCS (m²)

External: N2YO · Heavens-Above · Gunter

§ Orbital elements

Epoch: 2026-09-22T16:47:05.518752Z

Period
96.00 min
Inclination
97.6735°
Eccentricity
0.0010840
Mean motion
15.00071967 rev/d
Perigee alt
559.1 km
Apogee alt
574.2 km
Semi-major
6,944.8 km
B*
2.1698e-4
RAAN
341.3032°
Arg perigee
77.7746°
Mean anomaly
282.4691°
Rev number
11,473

§ Raw data

ICEYE-X431 60539U 24149BZ  26265.69936943  .00002647  00000+0  21698-3 0  99902 60539  97.6735 341.3032 0010840  77.7746 282.4691 15.00071967114733

JSON: /api/v1/satellites/60539 · /tle

For live sub-satellite position, see the globe view (requires WebGL).

§ Visibility from observer

Set your observer location to see the next 7 days of passes ≥ 10°. The values pass through the URL so the page stays shareable.

No JS? Fill the form by hand. The geolocation button needs JavaScript.

§ Radio — SatNOGS DB

ModeDescriptionDownlinkUplink
S-band telemetry 2.264 GHz

1 transmitter · refreshed weekly from db.satnogs.org